DW6044 Weather Reports


Display with metric or nautical units.
time (UTC)temp
F
wind
direction
speed
MPH
gust
MPH
rain 1hr
in
rain 24hr
in
rain mn
in
humidity
%
barometer
mb
20260510011403 53 127 0.0 0.0 0.00 0.00 0.00 87 1010.8
20260510011203 53 0 0.0 0.0 0.00 0.00 0.00 87 1010.4
20260510011003 53 0 0.0 0.0 0.00 0.00 0.00 86 1010.3
20260510010903 53 127 0.0 0.0 0.00 0.00 0.00 86 1010.7
20260510010803 53 0 0.0 0.0 0.00 0.00 0.00 86 1010.3
20260510010603 54 0 0.0 0.0 0.00 0.00 0.00 86 1010.2
20260510010403 54 0 0.0 0.0 0.00 0.00 0.00 86 1010.2
20260510010104 53 126 0.0 0.0 0.00 0.00 0.00 86 1010.6
20260510010024 53 127 0.0 0.0 0.00 0.00 0.00 86 1010.6
20260510010004 54 0 0.0 0.0 0.00 0.00 0.00 86 1010.2
20260510005802 54 0 0.0 0.0 0.00 0.00 0.00 85 1010.2
20260510005604 54 0 0.0 0.0 0.00 0.00 0.00 85 1010.2
20260510005403 54 127 0.0 0.0 0.00 0.00 0.00 85 1010.7
20260510005203 54 0 0.0 0.0 0.00 0.00 0.00 85 1010.1
20260510005004 54 0 0.0 0.0 0.00 0.00 0.00 85 1010.1
20260510004903 54 127 0.0 0.0 0.00 0.00 0.00 85 1010.6
20260510004804 54 0 0.0 0.0 0.00 0.00 0.00 85 1010.1
20260510004603 54 0 0.0 0.0 0.00 0.00 0.00 85 1010.0
20260510004528 54 126 0.0 0.0 0.00 0.00 0.00 85 1010.5
20260510004402 54 127 0.0 0.0 0.00 0.00 0.00 84 1010.5
20260510004003 55 0 0.0 0.0 0.00 0.00 0.00 84 1010.1
20260510003902 55 127 0.0 0.0 0.00 0.00 0.00 84 1010.5
20260510003803 55 0 0.0 0.0 0.00 0.00 0.00 84 1010.0
20260510003603 55 0 0.0 0.0 0.00 0.00 0.00 83 1010.0
20260510003403 55 127 0.0 0.0 0.00 0.00 0.00 83 1010.4
20260510003203 55 0 0.0 0.0 0.00 0.00 0.00 83 1009.9
20260510003043 55 127 0.0 0.0 0.00 0.00 0.00 83 1010.4
20260510003004 55 0 0.0 0.0 0.00 0.00 0.00 83 1009.9
20260510002903 55 127 0.0 0.0 0.00 0.00 0.00 83 1010.4
20260510002803 55 0 0.0 0.0 0.00 0.00 0.00 82 1010.0
20260510002602 55 0 0.0 0.0 0.00 0.00 0.00 82 1009.9
20260510002403 56 0 0.0 0.0 0.00 0.00 0.00 82 1009.9
20260510002003 56 0 0.0 0.0 0.00 0.00 0.00 82 1010.0
20260510001902 56 125 0.0 0.0 0.00 0.00 0.00 81 1010.4
20260510001555 56 125 0.0 0.0 0.00 0.00 0.00 81 1010.3
20260510001510 56 125 0.0 0.0 0.00 0.00 0.00 81 1010.4
20260510001403 56 0 0.0 0.0 0.00 0.00 0.00 81 1009.9
20260510001204 56 0 0.0 0.0 0.00 0.00 0.00 81 1010.0
20260510000903 57 125 0.0 0.0 0.00 0.00 0.00 80 1010.4
20260510000803 57 0 0.0 0.0 0.00 0.00 0.00 80 1010.0
20260510000603 57 0 0.0 0.0 0.00 0.00 0.00 80 1010.0
20260510000404 57 125 0.0 0.0 0.00 0.00 0.00 80 1010.4
20260510000204 57 0 0.0 0.0 0.00 0.00 0.00 79 1009.9
20260510000015 57 125 0.0 0.0 0.00 0.00 0.00 79 1010.3
20260510000003 58 0 0.0 0.0 0.00 0.00 0.00 78 1009.9
20260509235902 58 125 0.0 0.0 0.00 0.00 0.00 78 1010.3
20260509235603 58 0 0.0 0.0 0.00 0.00 0.00 78 1009.9
20260509235403 58 0 0.0 0.0 0.00 0.00 0.00 78 1009.9
20260509235203 58 0 0.0 0.0 0.00 0.00 0.00 78 1009.9
20260509234903 58 125 0.0 0.0 0.00 0.00 0.00 78 1010.3
20260509234803 58 0 0.0 0.0 0.00 0.00 0.00 78 1009.9
20260509234602 58 0 0.0 0.0 0.00 0.00 0.00 77 1009.8
20260509234526 58 125 0.0 0.0 0.00 0.00 0.00 77 1010.3
20260509234404 58 0 0.0 0.0 0.00 0.00 0.00 77 1009.9
20260509234203 59 0 0.0 0.0 0.00 0.00 0.00 77 1009.9
20260509234003 59 0 0.0 0.0 0.00 0.00 0.00 76 1009.9
20260509233902 59 178 0.0 0.0 0.00 0.00 0.00 76 1010.3
20260509233804 59 0 0.0 0.0 0.00 0.00 0.00 76 1009.9
20260509233604 59 0 0.0 0.0 0.00 0.00 0.00 76 1009.9
20260509233403 59 0 0.0 0.0 0.00 0.00 0.00 76 1010.0
20260509233204 59 0 0.0 0.0 0.00 0.00 0.00 76 1009.9
20260509233031 59 178 0.0 0.0 0.00 0.00 0.00 75 1010.4
20260509233003 59 0 0.0 0.0 0.00 0.00 0.00 75 1009.9
20260509232904 59 178 0.0 0.0 0.00 0.00 0.00 75 1010.3
20260509232803 59 0 0.0 0.0 0.00 0.00 0.00 75 1009.9
20260509232403 60 0 0.0 0.0 0.00 0.00 0.00 74 1009.9
20260509232203 60 0 0.0 0.0 0.00 0.00 0.00 74 1009.9
20260509232003 60 0 0.0 0.0 0.00 0.00 0.00 74 1009.9
20260509231902 60 55 0.0 0.0 0.00 0.00 0.00 74 1010.3
20260509231803 60 0 0.0 0.0 0.00 0.00 0.00 74 1009.8
20260509231603 60 0 0.0 0.0 0.00 0.00 0.00 74 1009.9
20260509231545 60 55 0.0 0.0 0.00 0.00 0.00 74 1010.3
20260509231508 60 55 0.0 0.0 0.00 0.00 0.00 73 1010.3
20260509231404 60 0 0.0 0.0 0.00 0.00 0.00 75 1009.9
20260509230902 60 55 0.0 0.0 0.00 0.00 0.00 73 1010.3
20260509230803 60 0 0.0 0.0 0.00 0.00 0.00 73 1009.9
20260509230603 60 0 0.0 0.0 0.00 0.00 0.00 74 1009.9
20260509230403 60 55 0.0 0.0 0.00 0.00 0.00 74 1010.2
20260509230203 60 0 0.0 0.0 0.00 0.00 0.00 74 1009.7
20260509230053 60 55 0.0 0.0 0.00 0.00 0.00 73 1010.2
20260509230018 60 55 0.0 0.0 0.00 0.00 0.00 73 1010.2
20260509230004 60 0 0.0 0.0 0.00 0.00 0.00 73 1009.8
20260509225904 60 55 0.0 0.0 0.00 0.00 0.00 72 1010.2
20260509225802 60 0 0.0 0.0 0.00 0.00 0.00 72 1009.7
20260509225603 60 0 0.0 0.0 0.00 0.00 0.00 73 1009.8
20260509225404 60 0 0.0 0.0 0.00 0.00 0.00 73 1009.8
20260509225203 60 0 0.0 0.0 0.00 0.00 0.00 73 1009.7
20260509225003 60 0 0.0 0.0 0.00 0.00 0.00 73 1009.8
20260509224803 60 0 0.0 0.0 0.00 0.00 0.00 72 1009.8
20260509224604 61 0 0.0 0.0 0.00 0.00 0.00 72 1009.8
20260509224528 60 55 0.0 0.0 0.00 0.00 0.00 72 1010.3
20260509224404 61 0 0.0 0.0 0.00 0.00 0.00 73 1009.8
20260509224202 61 0 0.0 0.0 0.00 0.00 0.00 75 1009.8
20260509224003 60 0 0.0 0.0 0.00 0.00 0.00 74 1009.8
20260509223903 61 55 0.0 0.0 0.00 0.00 0.00 73 1010.2
20260509223803 60 0 0.0 0.0 0.00 0.00 0.00 72 1009.8
20260509223603 60 0 0.0 0.0 0.00 0.00 0.00 73 1009.7
20260509223403 61 0 0.0 0.0 0.00 0.00 0.00 73 1009.7
20260509223204 61 0 0.0 0.0 0.00 0.00 0.00 73 1009.6
20260509223035 60 57 0.0 0.0 0.00 0.00 0.00 72 1010.1
20260509223003 61 0 0.0 0.0 0.00 0.00 0.00 74 1009.7
20260509222902 61 57 0.0 0.0 0.00 0.00 0.00 73 1010.0
20260509222803 61 0 0.0 0.0 0.00 0.00 0.00 73 1009.6
20260509222603 61 0 0.0 0.0 0.00 0.00 0.00 73 1009.7
20260509222403 61 0 0.0 0.0 0.00 0.00 0.00 74 1009.6
20260509222203 61 0 0.0 0.0 0.00 0.00 0.00 74 1009.6
20260509221803 61 0 0.0 1.0 0.00 0.00 0.00 74 1009.6
20260509221603 61 0 0.0 1.0 0.00 0.00 0.00 72 1009.7
20260509221601 60 87 0.0 0.0 0.00 0.00 0.00 72 1010.1
20260509221513 60 88 0.0 0.0 0.00 0.00 0.00 72 1010.1
20260509221403 61 0 0.0 0.0 0.00 0.00 0.00 73 1009.7
20260509221004 61 0 0.0 0.0 0.00 0.00 0.00 73 1009.8
20260509220902 61 88 0.0 0.0 0.00 0.00 0.00 73 1010.2
20260509220404 61 0 0.0 0.0 0.00 0.00 0.00 72 1009.9
20260509220203 61 0 0.0 0.0 0.00 0.00 0.00 72 1009.9
20260509220058 60 89 0.0 0.0 0.00 0.00 0.00 74 1010.4
20260509220010 60 89 0.0 0.0 0.00 0.00 0.00 73 1010.4
20260509220003 61 0 0.0 0.0 0.00 0.00 0.00 73 1010.0
20260509215903 61 89 0.0 0.0 0.00 0.00 0.00 73 1010.4
20260509215803 61 0 0.0 0.0 0.00 0.00 0.00 73 1010.0
20260509215603 61 0 0.0 0.0 0.00 0.00 0.00 72 1010.0
20260509215403 61 0 0.0 0.0 0.00 0.00 0.00 73 1010.0
20260509215203 61 0 0.0 0.0 0.00 0.00 0.00 74 1010.0
20260509215004 61 0 0.0 0.0 0.00 0.00 0.00 74 1010.0
20260509214902 61 89 0.0 0.0 0.00 0.00 0.00 73 1010.4
20260509214803 61 0 0.0 0.0 0.00 0.00 0.00 73 1010.0
20260509214603 61 0 0.0 0.0 0.00 0.00 0.00 74 1010.0
20260509214543 60 89 0.0 0.0 0.00 0.00 0.00 72 1010.3
20260509214504 60 88 0.0 0.0 0.00 0.00 0.00 72 1010.3
20260509214403 61 0 0.0 0.0 0.00 0.00 0.00 72 1009.9
20260509214204 61 0 0.0 0.0 0.00 0.00 0.00 73 1010.0
20260509214003 61 0 0.0 0.0 0.00 0.00 0.00 72 1009.9
20260509213903 61 89 0.0 0.0 0.00 0.00 0.00 72 1010.3
20260509213803 61 0 0.0 0.0 0.00 0.00 0.00 73 1009.9
20260509213403 61 73 0.0 0.0 0.00 0.00 0.00 72 1010.3
20260509213038 60 72 0.0 0.0 0.00 0.00 0.00 74 1010.3
20260509213004 60 73 0.0 0.0 0.00 0.00 0.00 74 1010.3
20260509212904 61 73 0.0 0.0 0.00 0.00 0.00 74 1010.3
20260509212603 61 0 0.0 0.0 0.00 0.00 0.00 73 1009.9
20260509212403 60 0 0.0 0.0 0.00 0.00 0.00 74 1009.9
20260509212203 61 0 0.0 0.0 0.00 0.00 0.00 74 1009.9
20260509212003 61 0 0.0 0.0 0.00 0.00 0.00 74 1010.0
20260509211545 60 73 0.0 0.0 0.00 0.00 0.00 73 1010.4
20260509211505 60 73 0.0 0.0 0.00 0.00 0.00 73 1010.3
20260509211403 61 73 0.0 0.0 0.00 0.00 0.00 72 1010.3
20260509211203 60 0 0.0 0.0 0.00 0.00 0.00 74 1010.0
20260509211003 60 0 0.0 0.0 0.00 0.00 0.00 71 1010.0
20260509210902 61 73 0.0 0.0 0.00 0.00 0.00 72 1010.3
20260509210604 60 0 0.0 0.0 0.00 0.00 0.00 72 1010.0
20260509210403 60 0 0.0 0.0 0.00 0.00 0.00 71 1010.0
20260509210203 61 0 0.0 0.0 0.00 0.00 0.00 70 1009.9
20260509210055 60 74 0.0 0.0 0.00 0.00 0.00 71 1010.3
20260509210009 60 74 0.0 0.0 0.00 0.00 0.00 70 1010.3
20260509210003 61 0 0.0 0.0 0.00 0.00 0.00 70 1009.9
20260509205803 60 0 0.0 0.0 0.00 0.00 0.00 71 1009.9
20260509205604 60 0 0.0 0.0 0.00 0.00 0.00 73 1009.9
20260509205403 60 74 0.0 0.0 0.00 0.00 0.00 72 1010.3
20260509205203 60 0 0.0 0.0 0.00 0.00 0.00 71 1009.9
20260509205003 60 0 0.0 0.0 0.00 0.00 0.00 72 1009.9
20260509204903 60 74 0.0 0.0 0.00 0.00 0.00 72 1010.3
20260509204804 60 0 0.0 0.0 0.00 0.00 0.00 73 1009.9
20260509204603 60 0 0.0 0.0 0.00 0.00 0.00 73 1009.9
20260509204544 60 74 0.0 0.0 0.00 0.00 0.00 73 1010.3
20260509204507 60 74 0.0 0.0 0.00 0.00 0.00 73 1010.3
20260509204403 60 0 0.0 0.0 0.00 0.00 0.00 71 1010.0
20260509204204 60 0 0.0 0.0 0.00 0.00 0.00 72 1010.0
20260509204003 60 0 0.0 0.0 0.00 0.00 0.00 73 1009.9
20260509203903 60 75 0.0 0.0 0.00 0.00 0.00 73 1010.3
20260509203803 60 0 0.0 0.0 0.00 0.00 0.00 73 1009.9
20260509203403 60 75 0.0 0.0 0.00 0.00 0.00 75 1010.3
20260509203203 60 0 0.0 0.0 0.00 0.00 0.00 74 1010.0
20260509203049 60 75 0.0 0.0 0.00 0.00 0.00 74 1010.3
20260509203007 60 75 0.0 0.0 0.00 0.00 0.00 74 1010.3
20260509203003 60 0 0.0 0.0 0.00 0.00 0.00 74 1009.9
20260509202902 60 75 0.0 0.0 0.00 0.00 0.00 72 1010.3
20260509202203 60 0 0.0 0.0 0.00 0.00 0.00 72 1009.9
20260509202003 61 0 0.0 0.0 0.00 0.00 0.00 70 1010.0
20260509201903 61 75 0.0 0.0 0.00 0.00 0.00 72 1010.3
20260509201803 61 0 0.0 0.0 0.00 0.00 0.00 72 1010.0
20260509201603 61 0 0.0 0.0 0.00 0.00 0.00 70 1010.1
20260509201543 60 75 0.0 0.0 0.00 0.00 0.00 70 1010.4
20260509201507 60 75 0.0 0.0 0.00 0.00 0.00 71 1010.4
20260509201403 61 0 0.0 0.0 0.00 0.00 0.00 71 1010.1
20260509201203 61 0 0.0 0.0 0.00 0.00 0.00 73 1010.1
20260509201005 61 0 0.0 0.0 0.00 0.00 0.00 73 1010.0
20260509200903 61 75 0.0 0.0 0.00 0.00 0.00 72 1010.4
20260509200803 61 0 0.0 0.0 0.00 0.00 0.00 72 1010.1
20260509200603 61 0 0.0 0.0 0.00 0.00 0.00 72 1010.1
20260509200403 61 75 0.0 0.0 0.00 0.00 0.00 72 1010.5
20260509200204 61 0 0.0 0.0 0.00 0.00 0.00 72 1010.2
20260509200055 60 75 0.0 0.0 0.00 0.00 0.00 72 1010.6
20260509200013 60 75 0.0 0.0 0.00 0.00 0.00 72 1010.6
20260509200004 61 0 0.0 0.0 0.00 0.00 0.00 72 1010.3
20260509195904 61 75 0.0 0.0 0.00 0.00 0.00 70 1010.6
20260509195804 61 0 0.0 0.0 0.00 0.00 0.00 71 1010.2
20260509195603 61 0 0.0 0.0 0.00 0.00 0.00 70 1010.3
20260509195404 61 75 0.0 0.0 0.00 0.00 0.00 69 1010.6
20260509195204 61 0 0.0 0.0 0.00 0.00 0.00 69 1010.2
20260509195003 61 0 0.0 0.0 0.00 0.00 0.00 68 1010.3
20260509194902 61 75 0.0 0.0 0.00 0.00 0.00 70 1010.7
20260509194803 61 0 0.0 0.0 0.00 0.00 0.00 69 1010.3
20260509194603 61 0 0.0 0.0 0.00 0.00 0.00 69 1010.3
20260509194554 61 107 0.0 0.0 0.00 0.00 0.00 69 1010.6
20260509194519 61 107 0.0 0.0 0.00 0.00 0.00 68 1010.6
20260509194403 61 107 0.0 0.0 0.00 0.00 0.00 66 1010.6
20260509194204 62 0 0.0 0.0 0.00 0.00 0.00 67 1010.2
20260509194004 62 0 0.0 0.0 0.00 0.00 0.00 72 1010.3
20260509193903 61 107 0.0 0.0 0.00 0.00 0.00 70 1010.6
20260509193803 61 0 0.0 0.0 0.00 0.00 0.00 70 1010.3
20260509193604 61 0 0.0 0.0 0.00 0.00 0.00 70 1010.4
20260509193403 61 0 0.0 0.0 0.00 0.00 0.00 70 1010.4
20260509193126 61 107 0.0 0.0 0.00 0.00 0.00 69 1010.7
20260509193025 61 107 0.0 0.0 0.00 0.00 0.00 68 1010.7
20260509193003 61 0 0.0 0.0 0.00 0.00 0.00 67 1010.3
20260509192902 62 107 0.0 1.0 0.00 0.00 0.00 68 1010.7
20260509192603 62 0 0.0 1.0 0.00 0.00 0.00 68 1010.4
20260509192203 62 0 0.0 0.0 0.00 0.00 0.00 66 1010.3
20260509192004 62 0 0.0 0.0 0.00 0.00 0.00 67 1010.3
20260509191904 62 107 0.0 2.0 0.00 0.00 0.00 70 1010.7
20260509191803 62 0 0.0 2.0 0.00 0.00 0.00 69 1010.4
20260509191531 62 107 0.0 0.0 0.00 0.00 0.00 68 1010.8
20260509191403 62 107 0.0 0.0 0.00 0.00 0.00 68 1010.6
20260509191204 62 0 0.0 0.0 0.00 0.00 0.00 68 1010.2
20260509191003 62 0 0.0 0.0 0.00 0.00 0.00 71 1010.3
20260509190902 62 74 0.0 0.0 0.00 0.00 0.00 71 1010.7
20260509190804 62 0 0.0 0.0 0.00 0.00 0.00 70 1010.3
20260509190603 62 0 0.0 0.0 0.00 0.00 0.00 72 1010.4
20260509190404 61 0 0.0 0.0 0.00 0.00 0.00 71 1010.4
20260509190204 61 0 0.0 0.0 0.00 0.00 0.00 71 1010.5
20260509190047 60 348 0.0 0.0 0.00 0.00 0.00 73 1010.9
20260509190004 60 348 0.0 0.0 0.00 0.00 0.00 73 1010.9
20260509185904 60 348 0.0 0.0 0.00 0.00 0.00 71 1011.0
20260509185604 60 0 0.0 0.0 0.00 0.00 0.00 75 1010.6
20260509185403 59 348 0.0 0.0 0.00 0.00 0.00 71 1011.1
20260509185204 59 0 0.0 0.0 0.00 0.00 0.00 69 1010.7
20260509185003 59 0 0.0 1.0 0.00 0.00 0.00 69 1010.8
20260509184903 59 349 0.0 1.0 0.00 0.00 0.00 70 1011.2
20260509184803 59 0 0.0 0.0 0.00 0.00 0.00 70 1010.9
20260509184603 59 0 0.0 0.0 0.00 0.00 0.00 71 1010.8
20260509184548 58 349 0.0 0.0 0.00 0.00 0.00 71 1011.2
20260509184526 58 348 0.0 0.0 0.00 0.00 0.00 71 1011.2
20260509184403 59 0 0.0 0.0 0.00 0.00 0.00 72 1010.8
20260509184204 59 0 0.0 0.0 0.00 0.00 0.00 72 1010.9
20260509183904 59 336 0.0 0.0 0.00 0.00 0.00 74 1011.5
20260509183803 59 0 0.0 0.0 0.00 0.00 0.00 74 1011.2
20260509183604 59 0 0.0 0.0 0.00 0.00 0.00 74 1011.2
20260509183403 59 243 0.0 0.0 0.00 0.00 0.00 71 1011.7
20260509183204 59 0 0.0 0.0 0.00 0.00 0.00 71 1011.3
20260509183055 58 243 0.0 0.0 0.00 0.00 0.00 73 1011.7
20260509183026 58 242 0.0 0.0 0.00 0.00 0.00 73 1011.7
20260509183003 59 0 0.0 0.0 0.00 0.00 0.00 74 1011.4
20260509182902 59 242 0.0 0.0 0.00 0.00 0.00 74 1011.8
20260509182803 59 0 0.0 0.0 0.00 0.00 0.00 73 1011.4
20260509182603 59 0 0.0 0.0 0.00 0.00 0.00 72 1011.4
20260509182403 59 243 0.0 0.0 0.00 0.00 0.00 71 1011.9
20260509182203 59 0 0.0 0.0 0.00 0.00 0.00 72 1011.6
20260509182003 59 0 0.0 0.0 0.00 0.00 0.00 71 1011.6
20260509181903 59 243 0.0 0.0 0.00 0.00 0.00 69 1012.0
20260509181803 59 0 0.0 0.0 0.00 0.00 0.00 69 1011.7
20260509181528 59 243 0.0 0.0 0.00 0.00 0.00 69 1012.0
20260509181404 59 0 0.0 0.0 0.00 0.00 0.00 69 1011.6
20260509181003 59 0 0.0 0.0 0.00 0.00 0.00 69 1011.6
20260509180903 59 243 0.0 0.0 0.00 0.00 0.00 68 1012.0
20260509180804 59 0 0.0 0.0 0.00 0.00 0.00 70 1011.6
20260509180403 59 243 0.0 0.0 0.00 0.00 0.00 71 1012.0
20260509180203 59 0 0.0 0.0 0.00 0.00 0.00 70 1011.5
20260509180035 59 242 0.0 0.0 0.00 0.00 0.00 70 1011.9
20260509180003 59 0 0.0 0.0 0.00 0.00 0.00 69 1011.5
20260509175903 59 243 0.0 0.0 0.00 0.00 0.00 69 1011.9
20260509175803 59 0 0.0 0.0 0.00 0.00 0.00 69 1011.5
20260509175604 59 0 0.0 0.0 0.00 0.00 0.00 70 1011.5
20260509175204 59 0 0.0 0.0 0.00 0.00 0.00 72 1011.6
20260509174903 59 243 0.0 0.0 0.00 0.00 0.00 71 1012.0
20260509174802 59 0 0.0 0.0 0.00 0.00 0.00 70 1011.6
20260509174603 59 0 0.0 0.0 0.00 0.00 0.00 69 1011.7
20260509174539 59 243 0.0 0.0 0.00 0.00 0.00 68 1012.0
20260509174404 59 0 0.0 0.0 0.00 0.00 0.00 69 1011.7
20260509174003 59 0 0.0 0.0 0.00 0.00 0.00 69 1011.5
20260509173903 59 243 0.0 0.0 0.00 0.00 0.00 69 1011.9
20260509173803 59 0 0.0 0.0 0.00 0.00 0.00 71 1011.5
20260509173403 59 243 0.0 0.0 0.00 0.00 0.00 71 1012.0
20260509173203 59 0 0.0 0.0 0.00 0.00 0.00 72 1011.6
20260509173056 59 243 0.0 0.0 0.00 0.00 0.00 70 1012.0
20260509173013 59 243 0.0 0.0 0.00 0.00 0.00 70 1012.1
20260509173004 59 0 0.0 0.0 0.00 0.00 0.00 70 1011.7
20260509172903 59 243 0.0 0.0 0.00 0.00 0.00 70 1012.1
20260509172804 59 0 0.0 0.0 0.00 0.00 0.00 70 1011.7
20260509172603 59 0 0.0 0.0 0.00 0.00 0.00 70 1011.7
20260509172203 59 0 0.0 0.0 0.00 0.00 0.00 71 1011.7
20260509172004 60 0 0.0 0.0 0.00 0.00 0.00 72 1011.7
20260509171617 59 243 0.0 0.0 0.00 0.00 0.00 71 1012.2
20260509171525 59 242 0.0 0.0 0.00 0.00 0.00 71 1012.1
20260509171205 60 0 0.0 0.0 0.00 0.00 0.00 71 1011.7
20260509171003 60 0 0.0 0.0 0.00 0.00 0.00 71 1011.7
20260509170904 60 242 0.0 0.0 0.00 0.00 0.00 70 1012.1
20260509170804 60 0 0.0 0.0 0.00 0.00 0.00 69 1011.7
20260509170603 60 0 0.0 0.0 0.00 0.00 0.00 69 1011.8
20260509170404 60 0 0.0 0.0 0.00 0.00 0.00 69 1011.8
20260509170036 59 243 0.0 0.0 0.00 0.00 0.00 69 1012.1
20260509170004 60 0 0.0 0.0 0.00 0.00 0.00 69 1011.7
20260509165902 60 243 0.0 0.0 0.00 0.00 0.00 69 1012.1
20260509165803 60 0 0.0 0.0 0.00 0.00 0.00 68 1011.8
20260509165605 60 0 0.0 0.0 0.00 0.00 0.00 68 1011.8
20260509165403 60 0 0.0 0.0 0.00 0.00 0.00 67 1011.8
20260509165203 60 0 0.0 0.0 0.00 0.00 0.00 68 1011.8
20260509165004 60 0 0.0 0.0 0.00 0.00 0.00 66 1011.8
20260509164903 60 214 0.0 0.0 0.00 0.00 0.00 66 1012.2
20260509164803 60 0 0.0 0.0 0.00 0.00 0.00 66 1011.9
20260509164546 60 214 0.0 0.0 0.00 0.00 0.00 66 1012.2
20260509164403 60 214 0.0 0.0 0.00 0.00 0.00 67 1012.3
20260509164204 60 0 0.0 0.0 0.00 0.00 0.00 66 1012.0
20260509164004 60 0 0.0 0.0 0.00 0.00 0.00 66 1011.9
20260509163903 60 152 0.0 0.0 0.00 0.00 0.00 64 1012.2
20260509163803 60 0 0.0 0.0 0.00 0.00 0.00 63 1011.8
20260509163603 60 0 0.0 0.0 0.00 0.00 0.00 63 1011.8
20260509163404 60 0 0.0 0.0 0.00 0.00 0.00 65 1011.8
20260509163203 60 0 0.0 0.0 0.00 0.00 0.00 64 1011.8
20260509163051 60 152 0.0 0.0 0.00 0.00 0.00 64 1012.2
20260509163010 60 309 0.0 0.0 0.00 0.00 0.00 63 1012.2
20260509163003 61 0 0.0 0.0 0.00 0.00 0.00 63 1011.9
20260509162902 61 309 0.0 0.0 0.00 0.00 0.00 64 1012.2
20260509162803 61 0 0.0 0.0 0.00 0.00 0.00 64 1011.9
20260509162604 61 0 0.0 0.0 0.00 0.00 0.00 64 1011.9
20260509162203 61 0 0.0 0.0 0.00 0.00 0.00 61 1012.0
20260509162004 61 0 0.0 0.0 0.00 0.00 0.00 62 1012.0
20260509161904 61 309 0.0 0.0 0.00 0.00 0.00 62 1012.3
20260509161803 62 0 0.0 0.0 0.00 0.00 0.00 62 1011.9
20260509161603 62 0 0.0 0.0 0.00 0.00 0.00 62 1012.0
20260509161558 61 309 0.0 0.0 0.00 0.00 0.00 62 1012.3
20260509161523 61 309 0.0 0.0 0.00 0.00 0.00 62 1012.3
20260509161403 62 313 0.0 0.0 0.00 0.00 0.00 61 1012.3
20260509161203 62 0 1.0 0.0 0.00 0.00 0.00 61 1011.8
20260509161005 62 0 1.0 0.0 0.00 0.00 0.00 59 1011.8
20260509160903 62 309 0.0 3.0 0.00 0.00 0.00 61 1012.1
20260509160804 62 0 1.0 0.0 0.00 0.00 0.00 61 1011.8
20260509160604 63 300 1.0 5.0 0.00 0.00 0.00 62 1011.7
20260509160405 63 295 1.0 5.0 0.00 0.00 0.00 58 1011.7
20260509160203 63 295 1.0 4.0 0.00 0.00 0.00 59 1011.7
20260509160030 62 296 1.0 0.0 0.00 0.00 0.00 58 1012.0
20260509155903 63 295 2.0 3.0 0.00 0.00 0.00 59 1012.0
20260509155803 63 0 0.0 4.0 0.00 0.00 0.00 59 1011.7
20260509155603 63 0 0.0 3.0 0.00 0.00 0.00 58 1011.7
20260509155404 63 0 0.0 3.0 0.00 0.00 0.00 61 1011.7
20260509155204 62 0 0.0 0.0 0.00 0.00 0.00 62 1011.7
20260509155004 62 0 0.0 0.0 0.00 0.00 0.00 67 1011.8
20260509154902 62 130 0.0 0.0 0.00 0.00 0.00 65 1012.2
20260509154803 62 0 0.0 0.0 0.00 0.00 0.00 65 1011.8
20260509154603 61 0 0.0 0.0 0.00 0.00 0.00 66 1011.8
20260509154540 61 130 0.0 0.0 0.00 0.00 0.00 66 1012.1
20260509154503 61 129 0.0 0.0 0.00 0.00 0.00 66 1012.1
20260509154403 61 0 0.0 0.0 0.00 0.00 0.00 66 1011.8
20260509154203 61 0 0.0 0.0 0.00 0.00 0.00 63 1011.7
20260509154004 61 0 0.0 0.0 0.00 0.00 0.00 65 1011.8
20260509153903 60 130 0.0 0.0 0.00 0.00 0.00 65 1012.1
20260509153803 60 0 0.0 0.0 0.00 0.00 0.00 66 1011.8
20260509153603 60 0 0.0 0.0 0.00 0.00 0.00 66 1011.8
20260509153403 60 263 0.0 0.0 0.00 0.00 0.00 64 1012.2
20260509153204 60 0 0.0 0.0 0.00 0.00 0.00 68 1011.9
20260509153044 59 263 0.0 0.0 0.00 0.00 0.00 65 1012.2
20260509153006 59 263 0.0 0.0 0.00 0.00 0.00 65 1012.2
20260509153003 59 0 0.0 0.0 0.00 0.00 0.00 69 1011.8
20260509152903 59 263 0.0 0.0 0.00 0.00 0.00 68 1012.2
20260509152803 59 0 0.0 0.0 0.00 0.00 0.00 68 1011.9
20260509152605 59 0 0.0 0.0 0.00 0.00 0.00 67 1011.9
20260509152403 59 263 0.0 0.0 0.00 0.00 0.00 66 1012.4
20260509152004 59 0 0.0 0.0 0.00 0.00 0.00 65 1012.1
20260509151904 59 263 0.0 0.0 0.00 0.00 0.00 64 1012.5
20260509151804 59 0 0.0 0.0 0.00 0.00 0.00 65 1012.2
20260509151603 59 0 0.0 0.0 0.00 0.00 0.00 67 1012.1
20260509151557 59 263 0.0 0.0 0.00 0.00 0.00 67 1012.5
20260509151513 58 263 0.0 0.0 0.00 0.00 0.00 65 1012.5
20260509151404 59 0 0.0 0.0 0.00 0.00 0.00 65 1012.1
20260509151203 59 0 0.0 0.0 0.00 0.00 0.00 68 1012.3
20260509151003 59 0 0.0 0.0 0.00 0.00 0.00 67 1012.4
20260509150903 59 263 0.0 0.0 0.00 0.00 0.00 68 1012.8
20260509150804 59 0 0.0 0.0 0.00 0.00 0.00 68 1012.4
20260509150604 59 0 0.0 0.0 0.00 0.00 0.00 66 1012.4
20260509150404 59 0 0.0 0.0 0.00 0.00 0.00 68 1012.5
20260509150203 59 0 0.0 0.0 0.00 0.00 0.00 67 1012.6
20260509150027 58 263 0.0 0.0 0.00 0.00 0.00 67 1013.0
20260509150005 59 0 0.0 0.0 0.00 0.00 0.00 68 1012.6
20260509145903 59 263 0.0 0.0 0.00 0.00 0.00 70 1012.9
20260509145803 59 0 0.0 0.0 0.00 0.00 0.00 69 1012.5
20260509145603 59 0 0.0 0.0 0.00 0.00 0.00 68 1012.5
20260509145403 59 0 0.0 1.0 0.00 0.00 0.00 67 1012.6
20260509145203 59 0 0.0 0.0 0.00 0.00 0.00 67 1012.6
20260509145004 59 0 0.0 5.0 0.00 0.00 0.00 65 1012.5
20260509144803 59 0 0.0 0.0 0.00 0.00 0.00 67 1012.6
20260509144604 59 0 0.0 0.0 0.00 0.00 0.00 69 1012.6
20260509144534 58 125 0.0 0.0 0.00 0.00 0.00 68 1012.9
20260509144403 59 126 0.0 0.0 0.00 0.00 0.00 67 1012.9
20260509144203 58 0 0.0 0.0 0.00 0.00 0.00 69 1012.6
20260509144003 58 0 0.0 0.0 0.00 0.00 0.00 70 1012.6
20260509143803 58 0 0.0 0.0 0.00 0.00 0.00 66 1012.5
20260509143204 58 0 0.0 0.0 0.00 0.00 0.00 70 1012.5
20260509143038 58 126 0.0 0.0 0.00 0.00 0.00 73 1012.9
20260509143004 58 0 0.0 0.0 0.00 0.00 0.00 72 1012.6
20260509143002 58 125 0.0 0.0 0.00 0.00 0.00 72 1012.9
20260509142903 58 126 0.0 0.0 0.00 0.00 0.00 71 1013.0
20260509142803 58 0 0.0 0.0 0.00 0.00 0.00 71 1012.6
20260509142604 58 0 0.0 0.0 0.00 0.00 0.00 70 1012.7
20260509142405 58 0 0.0 0.0 0.00 0.00 0.00 70 1012.6
20260509142203 58 0 0.0 0.0 0.00 0.00 0.00 69 1012.6
20260509142003 57 0 0.0 0.0 0.00 0.00 0.00 72 1012.6
20260509141903 57 126 0.0 0.0 0.00 0.00 0.00 73 1012.9
20260509141803 57 0 0.0 0.0 0.00 0.00 0.00 73 1012.6
20260509141603 57 0 0.0 0.0 0.00 0.00 0.00 73 1012.5
20260509141551 57 125 0.0 0.0 0.00 0.00 0.00 73 1012.9
20260509141520 57 126 0.0 0.0 0.00 0.00 0.00 72 1012.9
20260509141404 57 0 0.0 0.0 0.00 0.00 0.00 75 1012.5
20260509141203 57 0 0.0 0.0 0.00 0.00 0.00 74 1012.5
20260509141003 57 0 0.0 0.0 0.00 0.00 0.00 73 1012.5
20260509140903 57 126 0.0 0.0 0.00 0.00 0.00 74 1012.8
20260509140804 57 0 0.0 0.0 0.00 0.00 0.00 74 1012.5
20260509140604 57 0 0.0 0.0 0.00 0.00 0.00 73 1012.4
20260509140403 57 126 0.0 0.0 0.00 0.00 0.00 71 1012.7
20260509140052 56 126 0.0 0.0 0.00 0.00 0.00 72 1012.7
20260509140029 56 125 0.0 0.0 0.00 0.00 0.00 72 1012.7
20260509135903 57 126 0.0 0.0 0.00 0.00 0.00 72 1012.6
20260509135804 57 0 0.0 0.0 0.00 0.00 0.00 72 1012.3
20260509135604 57 0 0.0 0.0 0.00 0.00 0.00 73 1012.2
20260509135404 57 126 0.0 0.0 0.00 0.00 0.00 72 1012.5
20260509135003 57 0 0.0 0.0 0.00 0.00 0.00 71 1012.2
20260509134903 57 160 0.0 0.0 0.00 0.00 0.00 72 1012.5
20260509134603 57 0 0.0 0.0 0.00 0.00 0.00 73 1012.1
20260509134538 57 160 0.0 0.0 0.00 0.00 0.00 72 1012.5
20260509134203 57 0 0.0 0.0 0.00 0.00 0.00 70 1012.1
20260509134003 57 0 0.0 0.0 0.00 0.00 0.00 68 1012.0
20260509133903 57 160 0.0 2.0 0.00 0.00 0.00 68 1012.4
20260509133804 57 0 0.0 0.0 0.00 0.00 0.00 69 1012.1
20260509133203 57 0 0.0 0.0 0.00 0.00 0.00 69 1012.1
20260509133042 57 236 0.0 0.0 0.00 0.00 0.00 69 1012.5
20260509133004 57 0 0.0 0.0 0.00 0.00 0.00 70 1012.2
20260509132904 57 236 0.0 0.0 0.00 0.00 0.00 70 1012.4
20260509132603 57 0 0.0 0.0 0.00 0.00 0.00 70 1012.2
20260509132403 57 0 0.0 0.0 0.00 0.00 0.00 70 1012.2
20260509132204 57 0 0.0 0.0 0.00 0.00 0.00 71 1012.1
20260509132004 57 0 0.0 0.0 0.00 0.00 0.00 71 1012.1
20260509131903 57 229 1.0 3.0 0.00 0.00 0.00 72 1012.4
20260509131803 57 0 0.0 4.0 0.00 0.00 0.00 72 1012.1
20260509131613 57 360 0.0 0.0 0.00 0.00 0.00 70 1012.5
20260509131603 57 0 0.0 0.0 0.00 0.00 0.00 72 1012.2
20260509131510 57 360 0.0 0.0 0.00 0.00 0.00 70 1012.5
20260509131404 57 0 0.0 0.0 0.00 0.00 0.00 74 1012.1
20260509130902 57 44 0.0 1.0 0.00 0.00 0.00 73 1012.6
20260509130803 57 0 0.0 1.0 0.00 0.00 0.00 73 1012.3
20260509130403 56 225 0.0 2.0 0.00 0.00 0.00 71 1012.6
20260509130205 56 0 0.0 2.0 0.00 0.00 0.00 75 1012.2
20260509130008 56 225 0.0 0.0 0.00 0.00 0.00 75 1012.6
20260509130003 56 0 0.0 0.0 0.00 0.00 0.00 75 1012.1
20260509125903 56 225 0.0 0.0 0.00 0.00 0.00 74 1012.5
20260509125203 56 0 0.0 0.0 0.00 0.00 0.00 74 1012.1
20260509125004 56 0 0.0 0.0 0.00 0.00 0.00 76 1012.1
20260509124805 56 0 0.0 0.0 0.00 0.00 0.00 77 1012.1
20260509124603 56 0 0.0 0.0 0.00 0.00 0.00 77 1012.1
20260509124552 55 225 0.0 0.0 0.00 0.00 0.00 77 1012.5
20260509124510 55 225 0.0 0.0 0.00 0.00 0.00 77 1012.5
20260509124403 55 225 0.0 0.0 0.00 0.00 0.00 75 1012.5
20260509124203 55 0 0.0 0.0 0.00 0.00 0.00 75 1012.1
20260509124004 55 0 0.0 0.0 0.00 0.00 0.00 75 1012.2
20260509123804 55 0 0.0 0.0 0.00 0.00 0.00 75 1012.1
20260509123603 55 0 0.0 0.0 0.00 0.00 0.00 76 1012.0
20260509123403 55 221 0.0 0.0 0.00 0.00 0.00 78 1012.4
20260509123204 55 0 0.0 0.0 0.00 0.00 0.00 77 1011.9
20260509123103 54 221 0.0 0.0 0.00 0.00 0.00 76 1012.3
20260509123020 54 221 0.0 0.0 0.00 0.00 0.00 74 1012.3
20260509123004 55 0 0.0 0.0 0.00 0.00 0.00 74 1011.9
20260509122903 55 221 0.0 0.0 0.00 0.00 0.00 74 1012.3
20260509122803 55 0 0.0 0.0 0.00 0.00 0.00 74 1011.9
20260509122603 55 0 0.0 0.0 0.00 0.00 0.00 75 1012.0
20260509122403 54 0 0.0 0.0 0.00 0.00 0.00 75 1012.0
20260509122204 54 0 0.0 0.0 0.00 0.00 0.00 76 1012.0
20260509122003 54 0 0.0 1.0 0.00 0.00 0.00 79 1012.0
20260509121903 54 88 0.0 1.0 0.00 0.00 0.00 79 1012.4
20260509121804 54 0 0.0 1.0 0.00 0.00 0.00 79 1012.0
20260509121603 54 0 0.0 0.0 0.00 0.00 0.00 78 1012.0
20260509121521 54 15 0.0 0.0 0.00 0.00 0.00 77 1012.4
20260509121403 54 70 0.0 0.0 0.00 0.00 0.00 78 1012.4
20260509121203 54 0 0.0 0.0 0.00 0.00 0.00 80 1012.0
20260509121004 54 0 0.0 0.0 0.00 0.00 0.00 79 1012.0
20260509120905 54 62 0.0 0.0 0.00 0.00 0.00 79 1012.4
20260509120803 54 0 0.0 0.0 0.00 0.00 0.00 80 1012.0
20260509120604 54 0 0.0 0.0 0.00 0.00 0.00 79 1012.0
20260509120403 54 0 0.0 0.0 0.00 0.00 0.00 80 1012.0
20260509120203 54 0 0.0 1.0 0.00 0.00 0.00 80 1012.0
20260509120026 53 62 0.0 0.0 0.00 0.00 0.00 78 1012.4
20260509115603 53 0 0.0 0.0 0.00 0.00 0.00 80 1012.1
20260509115404 53 0 0.0 0.0 0.00 0.00 0.00 79 1012.1
20260509115203 53 0 0.0 0.0 0.00 0.00 0.00 81 1012.1
20260509115003 53 0 0.0 0.0 0.00 0.00 0.00 82 1012.1
20260509114903 53 103 0.0 1.0 0.00 0.00 0.00 82 1012.5
20260509114803 52 0 0.0 0.0 0.00 0.00 0.00 82 1012.0
20260509114531 52 102 0.0 0.0 0.00 0.00 0.00 80 1012.5
20260509114403 52 196 0.0 6.0 0.00 0.00 0.00 82 1012.5
20260509114204 52 0 0.0 0.0 0.00 0.00 0.00 81 1012.0
20260509114003 52 0 0.0 0.0 0.00 0.00 0.00 82 1012.0
20260509113903 52 208 0.0 0.0 0.00 0.00 0.00 81 1012.4
20260509113803 52 0 0.0 0.0 0.00 0.00 0.00 81 1012.0
20260509113603 52 0 0.0 0.0 0.00 0.00 0.00 81 1011.9
20260509113404 52 0 0.0 0.0 0.00 0.00 0.00 82 1011.9
20260509113203 52 0 0.0 0.0 0.00 0.00 0.00 82 1011.9
20260509113036 51 208 0.0 0.0 0.00 0.00 0.00 82 1012.3
20260509113003 52 0 0.0 0.0 0.00 0.00 0.00 82 1011.9
20260509112903 52 208 0.0 0.0 0.00 0.00 0.00 81 1012.3
20260509112804 52 0 0.0 0.0 0.00 0.00 0.00 82 1011.9
20260509112603 52 0 0.0 0.0 0.00 0.00 0.00 82 1011.8
20260509112404 52 0 0.0 0.0 0.00 0.00 0.00 82 1011.8
20260509112204 52 0 0.0 0.0 0.00 0.00 0.00 82 1011.8
20260509112003 52 0 0.0 0.0 0.00 0.00 0.00 82 1011.8
20260509111904 51 205 0.0 0.0 0.00 0.00 0.00 81 1012.2
20260509111804 51 0 0.0 0.0 0.00 0.00 0.00 81 1011.8
20260509111604 51 0 0.0 0.0 0.00 0.00 0.00 82 1011.8
20260509111544 51 205 0.0 0.0 0.00 0.00 0.00 82 1012.2
20260509111507 51 205 0.0 0.0 0.00 0.00 0.00 82 1012.2
20260509111404 51 0 0.0 0.0 0.00 0.00 0.00 82 1011.7
20260509111205 51 0 0.0 0.0 0.00 0.00 0.00 82 1011.7
20260509111003 51 0 0.0 0.0 0.00 0.00 0.00 82 1011.7
20260509110903 51 24 0.0 0.0 0.00 0.00 0.00 82 1012.1
20260509110804 51 0 0.0 0.0 0.00 0.00 0.00 82 1011.7
20260509110603 51 0 0.0 0.0 0.00 0.00 0.00 82 1011.7
20260509110404 51 0 0.0 0.0 0.00 0.00 0.00 82 1011.7
20260509110203 51 0 0.0 0.0 0.00 0.00 0.00 81 1011.6
20260509110104 51 24 0.0 0.0 0.00 0.00 0.00 82 1012.0
20260509110023 51 24 0.0 0.0 0.00 0.00 0.00 82 1012.0
20260509110004 51 0 0.0 0.0 0.00 0.00 0.00 81 1011.6
20260509105903 51 24 0.0 0.0 0.00 0.00 0.00 82 1012.0
20260509105803 51 0 0.0 0.0 0.00 0.00 0.00 82 1011.6
20260509105604 51 0 0.0 0.0 0.00 0.00 0.00 82 1011.6
20260509105404 51 0 0.0 0.0 0.00 0.00 0.00 82 1011.6
20260509105204 51 0 0.0 0.0 0.00 0.00 0.00 82 1011.5
20260509105004 51 0 0.0 0.0 0.00 0.00 0.00 81 1011.6
20260509104904 51 24 0.0 0.0 0.00 0.00 0.00 81 1011.9
20260509104605 51 0 0.0 0.0 0.00 0.00 0.00 81 1011.6
20260509104539 50 24 0.0 0.0 0.00 0.00 0.00 81 1011.9
20260509104403 51 24 0.0 0.0 0.00 0.00 0.00 81 1011.9
20260509104205 51 0 0.0 0.0 0.00 0.00 0.00 80 1011.5
20260509104003 51 0 0.0 0.0 0.00 0.00 0.00 80 1011.6
20260509103903 51 24 0.0 0.0 0.00 0.00 0.00 80 1012.0
20260509103805 51 0 0.0 0.0 0.00 0.00 0.00 80 1011.6
20260509103603 51 0 0.0 0.0 0.00 0.00 0.00 80 1011.6
20260509103204 51 0 0.0 0.0 0.00 0.00 0.00 80 1011.5
20260509103036 51 47 0.0 0.0 0.00 0.00 0.00 80 1012.0
20260509103004 51 0 0.0 0.0 0.00 0.00 0.00 80 1011.6
20260509102904 51 338 0.0 0.0 0.00 0.00 0.00 80 1012.0
20260509102804 51 0 0.0 0.0 0.00 0.00 0.00 80 1011.6
20260509102603 51 0 0.0 0.0 0.00 0.00 0.00 79 1011.6
20260509102004 51 0 0.0 0.0 0.00 0.00 0.00 79 1011.7
20260509101904 51 338 0.0 0.0 0.00 0.00 0.00 79 1012.0
20260509101803 51 0 0.0 0.0 0.00 0.00 0.00 79 1011.6
20260509101605 51 0 0.0 0.0 0.00 0.00 0.00 80 1011.6
20260509101539 51 338 0.0 0.0 0.00 0.00 0.00 79 1012.0
20260509101502 51 338 0.0 0.0 0.00 0.00 0.00 79 1012.0
20260509101403 51 0 0.0 0.0 0.00 0.00 0.00 79 1011.6
20260509101203 51 0 0.0 0.0 0.00 0.00 0.00 79 1011.5
20260509101004 51 0 0.0 0.0 0.00 0.00 0.00 79 1011.4
20260509100903 51 338 0.0 0.0 0.00 0.00 0.00 79 1011.8
20260509100803 51 0 0.0 0.0 0.00 0.00 0.00 79 1011.5
20260509100605 52 0 0.0 0.0 0.00 0.00 0.00 79 1011.5
20260509100404 52 0 0.0 0.0 0.00 0.00 0.00 79 1011.5
20260509100204 52 0 0.0 0.0 0.00 0.00 0.00 79 1011.3
20260509100042 51 338 0.0 0.0 0.00 0.00 0.00 79 1011.8
20260509100006 51 338 0.0 0.0 0.00 0.00 0.00 79 1011.8
20260509095403 52 338 0.0 0.0 0.00 0.00 0.00 80 1011.7
20260509095003 52 0 0.0 0.0 0.00 0.00 0.00 76 1011.2
20260509094903 52 338 0.0 0.0 0.00 0.00 0.00 74 1011.7
20260509094804 52 0 0.0 0.0 0.00 0.00 0.00 74 1011.3
20260509094603 52 0 0.0 0.0 0.00 0.00 0.00 74 1011.3
20260509094549 51 338 0.0 0.0 0.00 0.00 0.00 73 1011.6
20260509094510 51 338 0.0 0.0 0.00 0.00 0.00 73 1011.7
20260509094404 52 338 0.0 0.0 0.00 0.00 0.00 73 1011.7
20260509094205 52 0 0.0 0.0 0.00 0.00 0.00 74 1011.3
20260509093903 52 338 0.0 0.0 0.00 0.00 0.00 75 1011.7
20260509093804 52 0 0.0 0.0 0.00 0.00 0.00 75 1011.2
20260509093404 52 0 0.0 0.0 0.00 0.00 0.00 75 1011.2
20260509093203 52 0 0.0 0.0 0.00 0.00 0.00 75 1011.3
20260509093053 51 338 0.0 0.0 0.00 0.00 0.00 74 1011.7
20260509093024 51 338 0.0 0.0 0.00 0.00 0.00 74 1011.8
20260509093003 52 0 0.0 0.0 0.00 0.00 0.00 74 1011.4
20260509092904 52 338 0.0 0.0 0.00 0.00 0.00 74 1011.9
20260509092804 52 0 0.0 0.0 0.00 0.00 0.00 74 1011.4
20260509092603 52 0 0.0 0.0 0.00 0.00 0.00 74 1011.4
20260509092203 52 0 0.0 0.0 0.00 0.00 0.00 75 1011.4
20260509092004 52 0 0.0 0.0 0.00 0.00 0.00 76 1011.4
20260509091904 52 338 0.0 0.0 0.00 0.00 0.00 76 1011.9
20260509091803 52 0 0.0 0.0 0.00 0.00 0.00 76 1011.5
20260509091604 52 0 0.0 0.0 0.00 0.00 0.00 77 1011.4
20260509091555 51 338 0.0 0.0 0.00 0.00 0.00 78 1011.9
20260509091518 51 338 0.0 0.0 0.00 0.00 0.00 78 1011.9
20260509091403 51 338 0.0 0.0 0.00 0.00 0.00 78 1011.9
20260509091004 52 0 0.0 0.0 0.00 0.00 0.00 78 1011.5
20260509090903 52 338 0.0 0.0 0.00 0.00 0.00 78 1011.9
20260509090803 52 0 0.0 0.0 0.00 0.00 0.00 78 1011.4
20260509090604 52 0 0.0 0.0 0.00 0.00 0.00 79 1011.4
20260509090403 52 0 0.0 0.0 0.00 0.00 0.00 79 1011.5
20260509090203 52 0 0.0 0.0 0.00 0.00 0.00 79 1011.5
20260509090029 51 338 0.0 0.0 0.00 0.00 0.00 79 1011.9
20260509090004 52 0 0.0 0.0 0.00 0.00 0.00 79 1011.4
20260509085903 52 338 0.0 0.0 0.00 0.00 0.00 78 1011.9
20260509085805 52 0 0.0 0.0 0.00 0.00 0.00 78 1011.5
20260509085603 52 0 0.0 0.0 0.00 0.00 0.00 78 1011.5
20260509085204 52 0 0.0 0.0 0.00 0.00 0.00 78 1011.5
20260509085004 52 0 0.0 0.0 0.00 0.00 0.00 78 1011.6
20260509084903 52 338 0.0 0.0 0.00 0.00 0.00 77 1012.1
20260509084804 52 0 0.0 0.0 0.00 0.00 0.00 77 1011.6
20260509084603 52 0 0.0 0.0 0.00 0.00 0.00 75 1011.7
20260509084539 51 338 0.0 0.0 0.00 0.00 0.00 75 1012.1
20260509084004 52 0 0.0 0.0 0.00 0.00 0.00 76 1011.7
20260509083905 52 338 0.0 0.0 0.00 0.00 0.00 75 1012.1
20260509083803 52 0 0.0 0.0 0.00 0.00 0.00 75 1011.7
20260509083604 52 0 0.0 0.0 0.00 0.00 0.00 74 1011.7
20260509083404 52 0 0.0 0.0 0.00 0.00 0.00 73 1011.7
20260509083204 52 0 0.0 0.0 0.00 0.00 0.00 73 1011.8
20260509083046 51 338 0.0 0.0 0.00 0.00 0.00 73 1012.3
20260509083005 51 338 0.0 0.0 0.00 0.00 0.00 73 1012.3
20260509082903 52 338 0.0 0.0 0.00 0.00 0.00 73 1012.3
20260509082804 52 0 0.0 0.0 0.00 0.00 0.00 74 1011.8
20260509082603 52 0 0.0 0.0 0.00 0.00 0.00 74 1011.8
20260509082404 52 0 0.0 0.0 0.00 0.00 0.00 75 1011.8
20260509082204 52 0 0.0 0.0 0.00 0.00 0.00 75 1011.8
20260509082004 52 0 0.0 0.0 0.00 0.00 0.00 75 1011.8
20260509081903 52 338 0.0 0.0 0.00 0.00 0.00 76 1012.2
20260509081603 52 0 0.0 0.0 0.00 0.00 0.00 75 1011.8
20260509081517 51 338 0.0 0.0 0.00 0.00 0.00 75 1012.2
20260509081404 52 0 0.0 0.0 0.00 0.00 0.00 75 1011.8
20260509081204 52 0 0.0 0.0 0.00 0.00 0.00 74 1011.8
20260509081005 52 0 0.0 0.0 0.00 0.00 0.00 74 1011.8
20260509080904 52 338 0.0 0.0 0.00 0.00 0.00 74 1012.3
20260509080804 52 0 0.0 0.0 0.00 0.00 0.00 74 1011.9
20260509080604 52 0 0.0 0.0 0.00 0.00 0.00 74 1011.9
20260509080403 52 0 0.0 0.0 0.00 0.00 0.00 75 1011.9
20260509080204 52 0 0.0 0.0 0.00 0.00 0.00 74 1011.9
20260509080057 51 338 0.0 0.0 0.00 0.00 0.00 75 1012.4
20260509080019 51 338 0.0 0.0 0.00 0.00 0.00 75 1012.4
20260509080003 52 0 0.0 0.0 0.00 0.00 0.00 75 1011.9
20260509075903 52 338 0.0 0.0 0.00 0.00 0.00 75 1012.4
20260509075804 52 0 0.0 0.0 0.00 0.00 0.00 75 1011.9
20260509075404 52 0 0.0 0.0 0.00 0.00 0.00 75 1011.9
20260509075203 52 0 0.0 0.0 0.00 0.00 0.00 75 1011.9
20260509075004 52 0 0.0 0.0 0.00 0.00 0.00 75 1011.9
20260509074903 52 338 0.0 0.0 0.00 0.00 0.00 75 1012.4
20260509074604 52 0 0.0 0.0 0.00 0.00 0.00 75 1011.9
20260509074526 51 338 0.0 0.0 0.00 0.00 0.00 75 1012.4
20260509074403 52 338 0.0 0.0 0.00 0.00 0.00 75 1012.4
20260509074205 52 0 0.0 0.0 0.00 0.00 0.00 75 1012.0
20260509074004 52 0 0.0 0.0 0.00 0.00 0.00 75 1012.0
20260509073903 52 338 0.0 0.0 0.00 0.00 0.00 75 1012.5
20260509073803 52 0 0.0 0.0 0.00 0.00 0.00 75 1012.0
20260509073605 52 0 0.0 0.0 0.00 0.00 0.00 75 1012.0
20260509073403 52 0 0.0 0.0 0.00 0.00 0.00 75 1012.0
20260509073204 52 0 0.0 0.0 0.00 0.00 0.00 75 1011.9
20260509073027 51 202 0.0 0.0 0.00 0.00 0.00 75 1012.5
20260509073005 52 0 0.0 0.0 0.00 0.00 0.00 76 1012.0
20260509072903 52 202 0.0 0.0 0.00 0.00 0.00 75 1012.5
20260509072603 52 0 0.0 0.0 0.00 0.00 0.00 76 1012.0
20260509072404 52 0 0.0 0.0 0.00 0.00 0.00 76 1012.0
20260509072204 51 0 0.0 0.0 0.00 0.00 0.00 76 1012.1
20260509072003 51 0 0.0 0.0 0.00 0.00 0.00 76 1012.0
20260509071904 51 202 0.0 0.0 0.00 0.00 0.00 76 1012.5
20260509071804 51 0 0.0 0.0 0.00 0.00 0.00 76 1012.0
20260509071603 51 0 0.0 0.0 0.00 0.00 0.00 77 1012.0
20260509071531 51 202 0.0 0.0 0.00 0.00 0.00 77 1012.4
20260509071404 51 0 0.0 0.0 0.00 0.00 0.00 78 1012.0
20260509071204 51 0 0.0 0.0 0.00 0.00 0.00 78 1012.0
20260509070903 51 202 0.0 3.0 0.00 0.00 0.00 78 1012.4
20260509070804 51 0 0.0 3.0 0.00 0.00 0.00 78 1011.9
20260509070603 50 0 0.0 3.0 0.00 0.00 0.00 80 1011.9
20260509070405 50 0 0.0 0.0 0.00 0.00 0.00 81 1012.0
20260509070203 50 0 0.0 0.0 0.00 0.00 0.00 80 1012.0
20260509070043 50 202 0.0 0.0 0.00 0.00 0.00 82 1012.4
20260509070005 50 202 0.0 0.0 0.00 0.00 0.00 82 1012.4
20260509065904 50 115 0.0 0.0 0.00 0.00 0.00 82 1012.3
20260509065805 50 0 0.0 0.0 0.00 0.00 0.00 81 1011.9
20260509065603 50 0 0.0 0.0 0.00 0.00 0.00 84 1011.9
20260509065204 50 0 0.0 0.0 0.00 0.00 0.00 85 1011.9
20260509065004 50 0 0.0 0.0 0.00 0.00 0.00 86 1011.9
20260509064903 50 114 0.0 5.0 0.00 0.00 0.00 86 1012.4
20260509064804 50 0 0.0 5.0 0.00 0.00 0.00 86 1011.9
20260509064603 50 0 0.0 5.0 0.00 0.00 0.00 85 1011.9
20260509064545 49 114 0.0 0.0 0.00 0.00 0.00 85 1012.3
20260509064510 49 114 0.0 0.0 0.00 0.00 0.00 88 1012.3
20260509064403 49 129 0.0 0.0 0.00 0.00 0.00 88 1012.4
20260509064204 49 0 0.0 0.0 0.00 0.00 0.00 88 1011.9
20260509064003 49 0 0.0 0.0 0.00 0.00 0.00 88 1011.9
20260509063903 49 129 0.0 0.0 0.00 0.00 0.00 89 1012.3
20260509063804 49 0 0.0 0.0 0.00 0.00 0.00 89 1011.9
20260509063604 49 0 0.0 0.0 0.00 0.00 0.00 88 1012.0
20260509063404 49 129 0.0 0.0 0.00 0.00 0.00 88 1012.5
20260509063204 49 0 0.0 0.0 0.00 0.00 0.00 88 1012.0
20260509063052 49 129 0.0 0.0 0.00 0.00 0.00 88 1012.5
20260509063016 49 129 0.0 0.0 0.00 0.00 0.00 88 1012.5
20260509063004 49 0 0.0 0.0 0.00 0.00 0.00 89 1012.1
20260509062904 49 129 0.0 0.0 0.00 0.00 0.00 89 1012.5
20260509062803 49 0 0.0 0.0 0.00 0.00 0.00 89 1012.1
20260509062604 49 0 0.0 0.0 0.00 0.00 0.00 89 1012.1
20260509062404 49 0 0.0 0.0 0.00 0.00 0.00 89 1012.1
20260509062203 49 0 0.0 0.0 0.00 0.00 0.00 90 1012.1
20260509061903 49 129 0.0 0.0 0.00 0.00 0.00 90 1012.6
20260509061604 49 0 0.0 0.0 0.00 0.00 0.00 90 1012.1
20260509061528 48 129 0.0 0.0 0.00 0.00 0.00 90 1012.6
20260509061404 49 0 0.0 0.0 0.00 0.00 0.00 90 1012.2
20260509061004 49 0 0.0 0.0 0.00 0.00 0.00 90 1012.3
20260509060903 49 129 0.0 0.0 0.00 0.00 0.00 90 1012.7
20260509060804 49 0 0.0 0.0 0.00 0.00 0.00 90 1012.3
20260509060604 48 0 0.0 0.0 0.00 0.00 0.00 90 1012.2
20260509060404 48 129 0.0 0.0 0.00 0.00 0.00 90 1012.8
20260509060205 48 0 0.0 0.0 0.00 0.00 0.00 89 1012.4
20260509060028 48 129 0.0 0.0 0.00 0.00 0.00 90 1012.8
20260509060004 48 0 0.0 0.0 0.00 0.00 0.00 90 1012.4
20260509055804 48 0 0.0 0.0 0.00 0.00 0.00 90 1012.4
20260509055605 48 0 0.0 0.0 0.00 0.00 0.00 89 1012.4
20260509055404 48 0 0.0 0.0 0.00 0.00 0.00 89 1012.4
20260509055205 48 0 0.0 0.0 0.00 0.00 0.00 89 1012.4
20260509055004 48 0 0.0 0.0 0.00 0.00 0.00 89 1012.5
20260509054903 49 129 0.0 0.0 0.00 0.00 0.00 89 1013.0
20260509054804 48 0 0.0 0.0 0.00 0.00 0.00 89 1012.6
20260509054604 49 0 0.0 0.0 0.00 0.00 0.00 89 1012.6
20260509054545 48 129 0.0 0.0 0.00 0.00 0.00 89 1013.0
20260509054500 48 129 0.0 0.0 0.00 0.00 0.00 89 1013.0
20260509054404 49 0 0.0 0.0 0.00 0.00 0.00 88 1012.6
20260509054204 49 0 0.0 0.0 0.00 0.00 0.00 88 1012.6
20260509054004 49 0 0.0 0.0 0.00 0.00 0.00 88 1012.6
20260509053804 49 0 0.0 0.0 0.00 0.00 0.00 88 1012.7
20260509053605 49 0 0.0 0.0 0.00 0.00 0.00 88 1012.7
20260509053204 49 0 0.0 0.0 0.00 0.00 0.00 88 1012.8
20260509053134 48 129 0.0 0.0 0.00 0.00 0.00 88 1013.2
20260509053008 48 129 0.0 0.0 0.00 0.00 0.00 87 1013.2
20260509053004 49 0 0.0 0.0 0.00 0.00 0.00 87 1012.7
20260509052903 49 129 0.0 0.0 0.00 0.00 0.00 87 1013.2
20260509052803 49 0 0.0 0.0 0.00 0.00 0.00 87 1012.7
20260509052604 49 0 0.0 0.0 0.00 0.00 0.00 87 1012.8
20260509052404 49 0 0.0 0.0 0.00 0.00 0.00 87 1012.7
20260509052204 49 0 0.0 0.0 0.00 0.00 0.00 87 1012.7
20260509052004 49 0 0.0 0.0 0.00 0.00 0.00 87 1012.8
20260509051903 49 129 0.0 0.0 0.00 0.00 0.00 87 1013.2
20260509051803 49 0 0.0 0.0 0.00 0.00 0.00 87 1012.7
20260509051604 49 0 0.0 0.0 0.00 0.00 0.00 86 1012.7
20260509051551 49 129 0.0 0.0 0.00 0.00 0.00 86 1013.2
20260509051516 49 129 0.0 0.0 0.00 0.00 0.00 86 1013.2
20260509051404 49 0 0.0 0.0 0.00 0.00 0.00 86 1012.8
20260509051203 49 0 0.0 0.0 0.00 0.00 0.00 86 1012.9
20260509050904 50 129 0.0 0.0 0.00 0.00 0.00 86 1013.3
20260509050803 50 0 0.0 0.0 0.00 0.00 0.00 86 1012.9
20260509050604 50 0 0.0 0.0 0.00 0.00 0.00 86 1012.9
20260509050404 50 129 0.0 0.0 0.00 0.00 0.00 85 1013.3
20260509050035 49 129 0.0 0.0 0.00 0.00 0.00 85 1013.3
20260509050004 50 0 0.0 0.0 0.00 0.00 0.00 85 1012.9
20260509045904 50 129 0.0 0.0 0.00 0.00 0.00 85 1013.3
20260509045805 50 0 0.0 0.0 0.00 0.00 0.00 85 1012.9
20260509045405 50 0 0.0 0.0 0.00 0.00 0.00 85 1012.9
20260509045204 50 0 0.0 0.0 0.00 0.00 0.00 85 1012.9
20260509044903 50 129 0.0 0.0 0.00 0.00 0.00 84 1013.4
20260509044803 50 0 0.0 0.0 0.00 0.00 0.00 84 1012.9
20260509044604 50 0 0.0 0.0 0.00 0.00 0.00 84 1013.0
20260509044526 50 129 0.0 0.0 0.00 0.00 0.00 84 1013.4
20260509044405 50 0 0.0 0.0 0.00 0.00 0.00 84 1012.9
20260509044204 50 0 0.0 0.0 0.00 0.00 0.00 84 1012.9
20260509044005 50 0 0.0 0.0 0.00 0.00 0.00 84 1012.8
20260509043904 50 129 0.0 0.0 0.00 0.00 0.00 84 1013.3
20260509043804 50 0 0.0 0.0 0.00 0.00 0.00 84 1012.8
20260509043404 50 0 0.0 0.0 0.00 0.00 0.00 83 1012.8
20260509043204 50 0 0.0 0.0 0.00 0.00 0.00 83 1012.8
20260509043036 50 129 0.0 0.0 0.00 0.00 0.00 82 1013.3
20260509042903 51 129 0.0 0.0 0.00 0.00 0.00 83 1013.2
20260509042804 51 0 0.0 0.0 0.00 0.00 0.00 83 1012.8
20260509042605 51 0 0.0 0.0 0.00 0.00 0.00 83 1012.8
20260509042404 51 129 0.0 0.0 0.00 0.00 0.00 82 1013.3
20260509042005 51 0 0.0 0.0 0.00 0.00 0.00 82 1012.9
20260509041904 51 129 0.0 0.0 0.00 0.00 0.00 82 1013.3
20260509041604 51 0 0.0 0.0 0.00 0.00 0.00 81 1013.0
20260509041545 50 129 0.0 0.0 0.00 0.00 0.00 81 1013.5
20260509041510 50 129 0.0 0.0 0.00 0.00 0.00 81 1013.5
20260509041404 51 0 0.0 0.0 0.00 0.00 0.00 81 1013.0
20260509041205 51 0 0.0 0.0 0.00 0.00 0.00 81 1013.0
20260509041004 51 0 0.0 0.0 0.00 0.00 0.00 81 1013.0
20260509040804 51 0 0.0 0.0 0.00 0.00 0.00 81 1013.0
20260509040604 51 0 0.0 0.0 0.00 0.00 0.00 80 1013.0
20260509040404 51 0 0.0 0.0 0.00 0.00 0.00 80 1013.1
20260509040205 51 0 0.0 0.0 0.00 0.00 0.00 80 1013.0
20260509040109 51 129 0.0 0.0 0.00 0.00 0.00 80 1013.4
20260509040016 51 129 0.0 0.0 0.00 0.00 0.00 80 1013.4
20260509040005 51 0 0.0 0.0 0.00 0.00 0.00 80 1013.0
20260509035903 51 129 0.0 0.0 0.00 0.00 0.00 79 1013.4
20260509035805 51 0 0.0 0.0 0.00 0.00 0.00 79 1013.0
20260509035605 52 0 0.0 0.0 0.00 0.00 0.00 79 1013.0
20260509035404 52 0 0.0 0.0 0.00 0.00 0.00 79 1013.0
20260509035004 52 0 0.0 0.0 0.00 0.00 0.00 78 1013.0
20260509034904 52 129 0.0 0.0 0.00 0.00 0.00 78 1013.5
20260509034804 52 0 0.0 0.0 0.00 0.00 0.00 78 1013.1
20260509034604 52 0 0.0 0.0 0.00 0.00 0.00 78 1013.1
20260509034541 51 129 0.0 0.0 0.00 0.00 0.00 78 1013.5
20260509034505 51 129 0.0 0.0 0.00 0.00 0.00 78 1013.5
20260509034404 52 0 0.0 0.0 0.00 0.00 0.00 78 1013.1
20260509034204 52 0 0.0 0.0 0.00 0.00 0.00 77 1013.0
20260509034004 52 0 0.0 0.0 0.00 0.00 0.00 77 1013.1
20260509033903 52 129 0.0 0.0 0.00 0.00 0.00 77 1013.5
20260509033804 52 0 0.0 0.0 0.00 0.00 0.00 77 1013.1
20260509033603 52 0 0.0 0.0 0.00 0.00 0.00 77 1013.0
20260509033404 53 0 0.0 0.0 0.00 0.00 0.00 76 1013.1
20260509033043 52 129 0.0 0.0 0.00 0.00 0.00 76 1013.5
20260509033007 52 129 0.0 0.0 0.00 0.00 0.00 76 1013.5
20260509033005 53 0 0.0 0.0 0.00 0.00 0.00 76 1013.0
20260509032904 53 129 0.0 0.0 0.00 0.00 0.00 76 1013.5
20260509032804 53 0 0.0 0.0 0.00 0.00 0.00 75 1013.0
20260509032605 53 0 0.0 0.0 0.00 0.00 0.00 75 1013.1
20260509032404 53 0 0.0 0.0 0.00 0.00 0.00 74 1013.2
20260509032004 54 0 0.0 0.0 0.00 0.00 0.00 74 1013.1
20260509031903 54 129 0.0 0.0 0.00 0.00 0.00 74 1013.6
20260509031603 54 0 0.0 0.0 0.00 0.00 0.00 73 1013.1
20260509031558 53 129 0.0 0.0 0.00 0.00 0.00 73 1013.6
20260509031520 54 129 0.0 0.0 0.00 0.00 0.00 73 1013.6
20260509031204 54 0 0.0 0.0 0.00 0.00 0.00 72 1013.2
20260509031005 54 0 0.0 0.0 0.00 0.00 0.00 72 1013.2
20260509030904 55 129 0.0 0.0 0.00 0.00 0.00 73 1013.7
20260509030805 55 0 0.0 0.0 0.00 0.00 0.00 73 1013.2
20260509030604 55 0 0.0 0.0 0.00 0.00 0.00 72 1013.2
20260509030204 55 0 0.0 0.0 0.00 0.00 0.00 71 1013.3
20260509030033 55 129 0.0 0.0 0.00 0.00 0.00 71 1013.7
20260509030004 55 0 0.0 0.0 0.00 0.00 0.00 71 1013.3
20260509025904 55 129 0.0 0.0 0.00 0.00 0.00 71 1013.7
20260509025604 55 0 0.0 0.0 0.00 0.00 0.00 72 1013.2
20260509025404 55 129 0.0 0.0 0.00 0.00 0.00 72 1013.7
20260509025004 55 0 0.0 0.0 0.00 0.00 0.00 72 1013.2
20260509024804 55 0 0.0 0.0 0.00 0.00 0.00 72 1013.3
20260509024605 55 0 0.0 0.0 0.00 0.00 0.00 71 1013.3
20260509024544 55 129 0.0 0.0 0.00 0.00 0.00 71 1013.7
20260509024504 55 129 0.0 0.0 0.00 0.00 0.00 71 1013.7
20260509024403 55 129 0.0 0.0 0.00 0.00 0.00 70 1013.8
20260509024204 55 0 0.0 0.0 0.00 0.00 0.00 70 1013.3
20260509024004 56 0 0.0 0.0 0.00 0.00 0.00 71 1013.2
20260509023903 55 129 0.0 0.0 0.00 0.00 0.00 71 1013.7
20260509023803 56 0 0.0 0.0 0.00 0.00 0.00 71 1013.2
20260509023604 56 0 0.0 0.0 0.00 0.00 0.00 71 1013.2
20260509023204 56 0 0.0 0.0 0.00 0.00 0.00 72 1013.2
20260509023024 55 129 0.0 0.0 0.00 0.00 0.00 72 1013.6
20260509023004 56 0 0.0 0.0 0.00 0.00 0.00 72 1013.2
20260509022904 56 129 0.0 0.0 0.00 0.00 0.00 71 1013.7
20260509022805 56 0 0.0 0.0 0.00 0.00 0.00 71 1013.2
20260509022604 56 0 0.0 0.0 0.00 0.00 0.00 69 1013.3
20260509022404 56 0 0.0 0.0 0.00 0.00 0.00 68 1013.3
20260509022204 56 0 0.0 0.0 0.00 0.00 0.00 69 1013.3
20260509022004 56 0 0.0 0.0 0.00 0.00 0.00 70 1013.2
20260509021904 56 129 0.0 0.0 0.00 0.00 0.00 69 1013.7
20260509021805 56 0 0.0 0.0 0.00 0.00 0.00 70 1013.2
20260509021605 56 0 0.0 0.0 0.00 0.00 0.00 67 1013.2
20260509021526 55 129 0.0 0.0 0.00 0.00 0.00 67 1013.7
20260509021404 56 0 0.0 0.0 0.00 0.00 0.00 69 1013.2
20260509021205 56 0 0.0 0.0 0.00 0.00 0.00 68 1013.2
20260509021004 56 0 0.0 0.0 0.00 0.00 0.00 68 1013.3
20260509020905 56 129 0.0 0.0 0.00 0.00 0.00 68 1013.8
20260509020804 56 0 0.0 0.0 0.00 0.00 0.00 68 1013.3
20260509020605 56 0 0.0 0.0 0.00 0.00 0.00 68 1013.3
20260509020404 56 0 0.0 0.0 0.00 0.00 0.00 71 1013.4
20260509020204 56 0 0.0 0.0 0.00 0.00 0.00 71 1013.4
20260509020045 55 129 0.0 0.0 0.00 0.00 0.00 72 1013.8
20260509020002 55 129 0.0 0.0 0.00 0.00 0.00 71 1013.7
20260509015804 56 0 0.0 0.0 0.00 0.00 0.00 67 1013.3
20260509015604 56 0 0.0 0.0 0.00 0.00 0.00 69 1013.3
20260509015404 56 129 0.0 0.0 0.00 0.00 0.00 70 1013.7
20260509015205 56 0 0.0 0.0 0.00 0.00 0.00 66 1013.2
20260509015004 56 0 0.0 0.0 0.00 0.00 0.00 66 1013.2
20260509014904 56 129 0.0 0.0 0.00 0.00 0.00 66 1013.6
20260509014604 56 0 0.0 0.0 0.00 0.00 0.00 67 1013.1
20260509014544 56 129 0.0 0.0 0.00 0.00 0.00 68 1013.6
20260509014508 56 129 0.0 0.0 0.00 0.00 0.00 68 1013.6
20260509014404 56 0 0.0 0.0 0.00 0.00 0.00 69 1013.1
20260509013805 56 0 0.0 0.0 0.00 0.00 0.00 68 1013.1
20260509013604 56 0 0.0 0.0 0.00 0.00 0.00 70 1013.1
20260509013404 56 0 0.0 0.0 0.00 0.00 0.00 69 1013.1
20260509013204 56 0 0.0 0.0 0.00 0.00 0.00 67 1013.2
20260509013104 56 129 0.0 0.0 0.00 0.00 0.00 67 1013.6
20260509013014 56 129 0.0 0.0 0.00 0.00 0.00 67 1013.6
20260509013004 56 0 0.0 0.0 0.00 0.00 0.00 67 1013.1
20260509012804 56 0 0.0 0.0 0.00 0.00 0.00 68 1013.1
20260509012604 56 0 0.0 0.0 0.00 0.00 0.00 69 1013.2
20260509012405 56 0 0.0 0.0 0.00 0.00 0.00 67 1013.2
20260509012204 56 0 0.0 4.0 0.00 0.00 0.00 66 1013.1
20260509012004 56 0 0.0 2.0 0.00 0.00 0.00 64 1013.3
20260509011604 56 0 0.0 0.0 0.00 0.00 0.00 64 1013.1
20260509011517 56 317 0.0 0.0 0.00 0.00 0.00 63 1013.6